Regional Weather Roundup
Issued by NWS

Home | Current Version | Previous Version | Graphics & Text | Print | Product List | Glossary On
Versions: 1 2 3 4 5 6 7 8 9 10 11 12 13 14 15 16 17 18 19 20 21 22 23 24 25 26 27 28 29 30 31 32 33 34 35 36 37 38 39 40 41 42 43 44 45 46 47 48 49 50
000
ASUS45 KSLC 030510
RWRUT

UTAH REGIONAL WEATHER ROUNDUP
NATIONAL WEATHER SERVICE SALT LAKE CITY UT
1100 PM MDT MON MAY 02 2016

UTZ001>011-023>025-030600-

NORTHERN UTAH

CITY           SKY/WX    TMP DP  RH WIND       PRES   REMARKS
BRIGHAM CITY   CLEAR     55  34  44 E3        30.18S
HILL AFB       CLEAR     51  31  48 E8        30.19R
LOGAN          CLEAR     49  37  63 CALM      30.19R
OGDEN          CLEAR     52  33  48 S7        30.18R
PROVO AIRPORT  CLEAR     54  34  47 NW9       30.18S
SALT LAKE CITY CLEAR     56  37  49 CALM      30.18R
VERNAL         CLEAR     47  31  53 W7        30.19S
WENDOVER       CLEAR     54  39  58 W6        30.19R
HEBER CITY     CLEAR     43  32  65 SE5       30.21R

$$

UTZ012>022-026-027-030600-

SOUTHERN/CENTRAL UTAH

CITY           SKY/WX    TMP DP  RH WIND       PRES   REMARKS
BLANDING       CLEAR     43  37  78 NE7       30.27S
BRYCE CANYON   CLEAR     33  31  92 NW3       30.29R
CEDAR CITY     CLEAR     45  36  70 N6        30.19S
DELTA          CLEAR     50  37  62 E5        30.18S
HANKSVILLE     CLEAR     52  37  58 CALM      30.18S
MILFORD        CLEAR     49  38  65 SW3       30.19R
MOAB/CYNLANDS  CLEAR     53  37  54 CALM      30.13S
PRICE          CLEAR     45  34  65 N8        30.20S
ST GEORGE      CLEAR     63  39  42 NE9       30.13R

$$

REGIONAL REPORTS     COLORADO/ARIZONA

CITY           SKY/WX    TMP DP  RH WIND       PRES   REMARKS
CRAIG, CO      CLEAR     37  25  61 CALM      30.22R
GRAND JUNCTION CLEAR     54  34  46 N9        30.15S
RIFLE          CLEAR     48  30  49 S3        30.18R
MONTROSE       PTCLDY    47  31  53 SE9       30.21R
CORTEZ         CLOUDY    41  37  86 CALM      30.21R
PAGE, AZ       CLEAR     58  38  47 NW3       30.15S
GRAND CANYON   CLEAR     36  32  85 NE3       30.23S
KINGMAN        CLEAR     57  41  55 CALM      30.09R
FLAGSTAFF      CLEAR     34  34 100 CALM      30.23R

$$

REGIONAL REPORTS    NEVADA/IDAHO/WYOMING

CITY           SKY/WX    TMP DP  RH WIND       PRES   REMARKS
LAS VEGAS, NV  CLEAR     73  35  25 N7        30.00R
ELY            PTCLDY    42  32  67 SE3       30.23R
ELKO           CLEAR     51  35  54 E3        30.18R
POCATELLO, ID  CLOUDY    46  34  62 E6        30.19R
BURLEY         CLEAR     49  39  68 CALM      30.15S
EVANSTON, WY   CLEAR     45  24  43 CALM      30.26R
ROCK SPRINGS   CLOUDY    44  19  36 E3        30.24R
KEMMERER         N/A     43  18  36 NW6       30.26S

$$



USA.gov is the U.S. government's official web portal to all federal, state and local government web resources and services.